• In Uzbekistan
  • List of Countries
  • For 7 days
  • Water Temperature
  • Satellite Maps
  • Weather Map
  • Weather Widgets
  • user-avatar
    Login

    Hourly Weather Charlottetown

    Today, 23 October, Tuesday

    Time Temperature Precipitation Wind Pressure Humidity
    00:00 0°C° 0 mm 8 mps 764 mmHg 55%
    01:00 0°C° 0 mm 8 mps 764 mmHg 56%
    02:00 -1°C° 0 mm 6 mps 764 mmHg 58%
    03:00 -1°C° 0 mm 6 mps 764 mmHg 59%
    04:00 -1°C° 0 mm 6 mps 765 mmHg 60%
    05:00 -1°C° 0 mm 6 mps 765 mmHg 62%
    06:00 -1°C° 0 mm 6 mps 765 mmHg 62%
    07:00 -1°C° 0 mm 6 mps 766 mmHg 62%
    08:00 -1°C° 0 mm 6 mps 766 mmHg 62%
    09:00 +1°C° 0 mm 6 mps 766 mmHg 60%
    10:00 +2°C° 0 mm 5 mps 767 mmHg 57%
    11:00 +2°C° 0 mm 5 mps 767 mmHg 54%
    12:00 +4°C° 0 mm 4 mps 767 mmHg 52%
    13:00 +4°C° 0 mm 4 mps 767 mmHg 49%
    14:00 +5°C° 0 mm 3 mps 767 mmHg 46%
    15:00 +5°C° 0 mm 2 mps 767 mmHg 46%
    16:00 +5°C° 0 mm 2 mps 767 mmHg 47%
    17:00 +5°C° 0 mm 1 mps 767 mmHg 47%
    18:00 +4°C° 0 mm 2 mps 767 mmHg 49%
    19:00 +3°C° 0 mm 3 mps 767 mmHg 52%
    20:00 +3°C° 0 mm 4 mps 767 mmHg 54%
    21:00 +2°C° 0 mm 5 mps 767 mmHg 56%
    22:00 +3°C° 0 mm 5 mps 767 mmHg 58%
    23:00 +3°C° 0 mm 6 mps 766 mmHg 59%

    Tomorrow, 24 October, Wednesday

    Time Temperature Precipitation Wind Pressure Humidity
    00:00 +3°C° 0 mm 6 mps 766 mmHg 61%
    01:00 +4°C° 0 mm 7 mps 765 mmHg 63%
    02:00 +4°C° 0 mm 7 mps 765 mmHg 64%
    03:00 +5°C° 0.3 mm 8 mps 764 mmHg 66%
    04:00 +5°C° 0.3 mm 9 mps 763 mmHg 67%
    05:00 +5°C° 0.3 mm 10 mps 762 mmHg 69%
    06:00 +4°C° 0.5 mm 11 mps 761 mmHg 72%
    07:00 +4°C° 0.5 mm 12 mps 760 mmHg 76%
    08:00 +4°C° 0.5 mm 13 mps 759 mmHg 80%
    09:00 +5°C° 0.4 mm 12 mps 758 mmHg 81%
    10:00 +5°C° 0.4 mm 12 mps 757 mmHg 83%
    11:00 +7°C° 0.4 mm 11 mps 756 mmHg 85%
    12:00 +8°C° 0.1 mm 9 mps 755 mmHg 86%
    13:00 +9°C° 0.1 mm 7 mps 754 mmHg 87%
    14:00 +10°C° 0.1 mm 5 mps 753 mmHg 88%
    15:00 +10°C° 0.1 mm 5 mps 752 mmHg 88%
    16:00 +11°C° 0.1 mm 4 mps 752 mmHg 88%
    17:00 +11°C° 0.1 mm 4 mps 751 mmHg 88%
    18:00 +10°C° 0.1 mm 4 mps 751 mmHg 89%
    19:00 +10°C° 0.1 mm 4 mps 751 mmHg 90%
    20:00 +9°C° 0.1 mm 3 mps 750 mmHg 91%
    21:00 +9°C° 0 mm 3 mps 750 mmHg 91%
    22:00 +8°C° 0 mm 3 mps 749 mmHg 92%
    23:00 +8°C° 0 mm 3 mps 749 mmHg 92%

    Day after tomorrow, 25 October, Thursday

    Time Temperature Precipitation Wind Pressure Humidity
    00:00 +8°C° 0.2 mm 3 mps 748 mmHg 93%
    01:00 +7°C° 0.2 mm 4 mps 747 mmHg 93%
    02:00 +7°C° 0.2 mm 4 mps 747 mmHg 94%
    03:00 +6°C° 0.1 mm 5 mps 746 mmHg 93%
    04:00 +5°C° 0.1 mm 6 mps 746 mmHg 93%
    05:00 +5°C° 0.1 mm 7 mps 745 mmHg 93%
    06:00 +4°C° 0 mm 8 mps 745 mmHg 91%
    07:00 +4°C° 0 mm 8 mps 745 mmHg 90%
    08:00 +3°C° 0 mm 9 mps 745 mmHg 88%
    09:00 +4°C° 0.1 mm 8 mps 745 mmHg 87%
    10:00 +4°C° 0.1 mm 8 mps 746 mmHg 86%
    11:00 +4°C° 0.1 mm 8 mps 746 mmHg 85%
    12:00 +2°C° 0.2 mm 9 mps 746 mmHg 84%
    13:00 +2°C° 0.2 mm 9 mps 746 mmHg 82%
    14:00 +2°C° 0.2 mm 10 mps 746 mmHg 81%
    15:00 +2°C° 0.2 mm 10 mps 746 mmHg 81%
    16:00 +2°C° 0.2 mm 10 mps 746 mmHg 80%
    17:00 +1°C° 0.2 mm 11 mps 746 mmHg 79%
    18:00 +1°C° 0.2 mm 11 mps 746 mmHg 79%
    19:00 +1°C° 0.2 mm 11 mps 746 mmHg 79%
    20:00 0°C° 0.2 mm 12 mps 747 mmHg 79%
    21:00 0°C° 0.2 mm 12 mps 747 mmHg 78%
    22:00 0°C° 0.2 mm 12 mps 747 mmHg 78%
    23:00 0°C° 0.2 mm 12 mps 747 mmHg 77%

    26 October, Friday

    Time Temperature Precipitation Wind Pressure Humidity
    00:00 0°C° 0.1 mm 12 mps 747 mmHg 77%
    01:00 0°C° 0.1 mm 12 mps 748 mmHg 77%
    02:00 -1°C° 0.1 mm 12 mps 748 mmHg 77%
    03:00 -1°C° 0 mm 12 mps 749 mmHg 77%
    04:00 -1°C° 0 mm 12 mps 749 mmHg 77%
    05:00 -2°C° 0 mm 12 mps 750 mmHg 76%
    06:00 -2°C° 0 mm 11 mps 750 mmHg 76%
    07:00 -2°C° 0 mm 11 mps 751 mmHg 75%
    08:00 -2°C° 0 mm 11 mps 752 mmHg 74%
    09:00 -2°C° 0 mm 11 mps 752 mmHg 73%
    10:00 -2°C° 0 mm 11 mps 753 mmHg 71%
    11:00 -2°C° 0 mm 10 mps 753 mmHg 70%
    12:00 -2°C° 0 mm 10 mps 753 mmHg 68%
    13:00 -2°C° 0 mm 10 mps 754 mmHg 67%
    14:00 0°C° 0 mm 10 mps 754 mmHg 66%
    15:00 0°C° 0 mm 10 mps 755 mmHg 66%
    16:00 0°C° 0 mm 10 mps 756 mmHg 66%
    17:00 0°C° 0 mm 10 mps 756 mmHg 66%
    18:00 -2°C° 0 mm 10 mps 757 mmHg 66%
    19:00 -2°C° 0 mm 10 mps 758 mmHg 66%
    20:00 -2°C° 0 mm 10 mps 759 mmHg 65%
    21:00 -2°C° 0 mm 10 mps 760 mmHg 66%
    22:00 -1°C° 0 mm 9 mps 761 mmHg 66%
    23:00 -3°C° 0 mm 9 mps 761 mmHg 67%

    27 October, Saturday

    Time Temperature Precipitation Wind Pressure Humidity
    00:00 -2°C° 0 mm 8 mps 762 mmHg 68%
    01:00 -2°C° 0 mm 8 mps 762 mmHg 69%
    02:00 -2°C° 0 mm 7 mps 763 mmHg 71%
    03:00 -2°C° 0 mm 7 mps 764 mmHg 72%
    04:00 -2°C° 0 mm 6 mps 765 mmHg 73%
    05:00 -3°C° 0 mm 6 mps 765 mmHg 75%
    06:00 -2°C° 0 mm 6 mps 766 mmHg 74%
    07:00 -2°C° 0 mm 6 mps 767 mmHg 73%
    08:00 -2°C° 0 mm 6 mps 768 mmHg 72%
    09:00 -1°C° 0 mm 5 mps 768 mmHg 70%
    10:00 0°C° 0 mm 5 mps 769 mmHg 68%
    11:00 0°C° 0 mm 4 mps 769 mmHg 65%
    12:00 +1°C° 0 mm 5 mps 769 mmHg 64%
    13:00 +1°C° 0 mm 5 mps 770 mmHg 62%
    14:00 +1°C° 0 mm 5 mps 770 mmHg 61%
    15:00 +1°C° 0 mm 4 mps 770 mmHg 62%
    16:00 0°C° 0 mm 4 mps 771 mmHg 63%
    17:00 0°C° 0 mm 4 mps 772 mmHg 64%
    18:00 0°C° 0 mm 4 mps 772 mmHg 65%
    19:00 0°C° 0 mm 4 mps 773 mmHg 67%
    20:00 0°C° 0 mm 4 mps 773 mmHg 68%
    21:00 0°C° 0 mm 4 mps 774 mmHg 68%
    22:00 0°C° 0 mm 4 mps 774 mmHg 68%
    23:00 0°C° 0 mm 4 mps 774 mmHg 68%

    28 October, Sunday

    Time Temperature Precipitation Wind Pressure Humidity
    00:00 +1°C° 0 mm 5 mps 774 mmHg 68%
    01:00 +1°C° 0 mm 5 mps 774 mmHg 69%
    02:00 +1°C° 0 mm 6 mps 774 mmHg 69%
    03:00 +2°C° 0 mm 7 mps 774 mmHg 70%
    04:00 +1°C° 0 mm 8 mps 774 mmHg 71%
    05:00 +1°C° 0 mm 8 mps 774 mmHg 71%
    06:00 +1°C° 0 mm 9 mps 774 mmHg 72%
    07:00 +1°C° 0 mm 9 mps 774 mmHg 72%
    08:00 +2°C° 0 mm 9 mps 774 mmHg 73%
    09:00 +2°C° 0.2 mm 10 mps 773 mmHg 73%
    10:00 +2°C° 0.2 mm 11 mps 772 mmHg 74%
    11:00 +3°C° 0.2 mm 11 mps 772 mmHg 74%
    12:00 +3°C° 2.5 mm 12 mps 770 mmHg 78%
    13:00 +3°C° 2.5 mm 12 mps 769 mmHg 82%
    14:00 +3°C° 2.5 mm 12 mps 768 mmHg 86%
    15:00 +3°C° 4.2 mm 12 mps 767 mmHg 88%
    16:00 +4°C° 4.2 mm 12 mps 766 mmHg 89%
    17:00 +4°C° 4.2 mm 12 mps 765 mmHg 90%
    18:00 +5°C° 2.1 mm 12 mps 764 mmHg 89%
    19:00 +7°C° 2.1 mm 12 mps 763 mmHg 89%
    20:00 +8°C° 2.1 mm 13 mps 762 mmHg 89%
    21:00 +8°C° 1.9 mm 13 mps 761 mmHg 89%
    22:00 +9°C° 1.9 mm 12 mps 760 mmHg 89%
    23:00 +10°C° 1.9 mm 12 mps 759 mmHg 89%

    29 October, Monday

    Time Temperature Precipitation Wind Pressure Humidity
    00:00 +12°C° 0.3 mm 11 mps 758 mmHg 91%
    01:00 +13°C° 0.3 mm 10 mps 757 mmHg 92%
    02:00 +13°C° 0.3 mm 9 mps 756 mmHg 93%
    03:00 +15°C° 0.6 mm 9 mps 755 mmHg 94%
    04:00 +15°C° 0.6 mm 8 mps 754 mmHg 94%
    05:00 +15°C° 0.6 mm 7 mps 753 mmHg 95%
    06:00 +15°C° 0.6 mm 7 mps 753 mmHg 95%
    07:00 +16°C° 0.6 mm 6 mps 753 mmHg 95%
    08:00 +16°C° 0.6 mm 6 mps 752 mmHg 96%
    09:00 +16°C° 0.3 mm 6 mps 752 mmHg 92%
    10:00 +16°C° 0.3 mm 7 mps 752 mmHg 89%
    11:00 +17°C° 0.3 mm 8 mps 752 mmHg 86%
    12:00 +16°C° 0.1 mm 8 mps 753 mmHg 83%
    13:00 +15°C° 0.1 mm 8 mps 753 mmHg 80%
    14:00 +15°C° 0.1 mm 9 mps 753 mmHg 76%
    15:00 +13°C° 0 mm 8 mps 754 mmHg 78%
    16:00 +12°C° 0 mm 7 mps 754 mmHg 79%
    17:00 +11°C° 0 mm 7 mps 754 mmHg 81%
    18:00 +11°C° 0 mm 6 mps 755 mmHg 82%
    19:00 +10°C° 0 mm 6 mps 755 mmHg 83%
    20:00 +10°C° 0 mm 6 mps 756 mmHg 85%
    21:00 +10°C° 0 mm 6 mps 756 mmHg 85%
    22:00 +9°C° 0 mm 6 mps 756 mmHg 86%
    23:00 +9°C° 0 mm 6 mps 756 mmHg 87%
    Show more